CW3794 Weather Reports


Display with metric or nautical units.
time (UTC)temp
F
wind
direction
speed
MPH
gust
MPH
rain 1hr
in
rain 24hr
in
rain mn
in
humidity
%
barometer
mb
20180223134431 37 209 0.0 0.0 0.00 0.00 0.00 61 1019.9
20180223133909 36 209 0.0 0.0 0.00 0.00 0.00 61 1019.9
20180223133444 36 210 0.0 0.0 0.00 0.00 0.00 61 1020.0
20180223132411 37 209 0.0 0.0 0.00 0.00 0.00 61 1020.0
20180223130929 37 209 0.0 0.0 0.00 0.00 0.00 60 1020.0
20180223123911 37 210 0.0 0.0 0.00 0.00 0.00 59 1019.8
20180223121943 37 210 0.0 1.0 0.00 0.00 0.00 59 1019.8
20180223120945 37 210 0.0 1.0 0.00 0.00 0.00 59 1019.8
20180223120425 37 209 0.0 0.0 0.00 0.00 0.00 59 1019.7
20180223115907 37 210 0.0 0.0 0.00 0.00 0.00 59 1019.7
20180223115445 37 209 0.0 0.0 0.00 0.00 0.00 58 1019.8
20180223114416 37 210 0.0 0.0 0.00 0.00 0.00 58 1019.8
20180223113905 38 209 0.0 0.0 0.00 0.00 0.00 58 1019.8
20180223113424 38 209 0.0 0.0 0.00 0.00 0.00 58 1019.8
20180223111409 38 209 0.0 0.0 0.00 0.00 0.00 58 1019.8
20180223110413 38 209 0.0 0.0 0.00 0.00 0.00 57 1019.9
20180223104406 39 209 0.0 0.0 0.00 0.00 0.00 56 1019.9
20180223103939 39 209 0.0 0.0 0.00 0.00 0.00 56 1019.9
20180223103436 39 209 0.0 2.0 0.00 0.00 0.00 56 1019.9
20180223101919 39 209 0.0 0.0 0.00 0.00 0.00 56 1020.1
20180223101451 39 209 0.0 0.0 0.00 0.00 0.00 56 1020.1
20180223100927 39 211 0.0 0.0 0.00 0.00 0.00 56 1020.1
20180223094942 39 208 0.0 0.0 0.00 0.00 0.00 57 1020.2
20180223094434 39 209 0.0 0.0 0.00 0.00 0.00 57 1020.2
20180223093928 39 210 0.0 0.0 0.00 0.00 0.00 57 1020.3
20180223091951 39 209 0.0 0.0 0.00 0.00 0.00 56 1020.5
20180223091409 39 209 0.0 0.0 0.00 0.00 0.00 56 1020.5
20180223090949 40 210 0.0 0.0 0.00 0.00 0.00 56 1020.5
20180223085421 40 210 0.0 0.0 0.00 0.00 0.00 55 1020.6
20180223084440 40 209 0.0 0.0 0.00 0.00 0.00 55 1020.6
20180223082937 40 210 0.0 0.0 0.00 0.00 0.00 54 1020.6
20180223082428 40 209 0.0 0.0 0.00 0.00 0.00 54 1020.6
20180223075944 41 209 2.0 3.0 0.00 0.00 0.00 53 1020.8
20180223073421 41 209 0.0 0.0 0.00 0.00 0.00 52 1021.0
20180223071451 42 211 0.0 0.0 0.00 0.00 0.00 51 1021.1
20180223070438 42 209 0.0 0.0 0.00 0.00 0.00 51 1021.1
20180223064945 43 209 0.0 0.0 0.00 0.00 0.00 51 1021.1
20180223063948 43 209 0.0 0.0 0.00 0.00 0.00 51 1021.0
20180223061928 43 209 0.0 0.0 0.00 0.00 0.00 50 1021.0
20180223060942 44 209 0.0 0.0 0.00 0.00 0.00 50 1021.0
20180223060415 44 210 0.0 0.0 0.00 0.00 0.00 50 1021.0
20180223055911 44 209 0.0 0.0 0.00 0.00 0.00 50 1021.0
20180223054941 44 210 0.0 0.0 0.00 0.00 0.00 49 1021.1
20180223053908 44 209 0.0 0.0 0.00 0.00 0.00 50 1021.1
20180223053407 44 209 0.0 0.0 0.00 0.00 0.00 49 1021.1
20180223052912 45 209 0.0 0.0 0.00 0.00 0.00 49 1021.2
20180223051424 45 209 0.0 0.0 0.00 0.00 0.00 48 1021.1
20180223050928 45 209 0.0 0.0 0.00 0.00 0.00 48 1021.1
20180223044408 46 209 0.0 0.0 0.00 0.00 0.00 46 1021.0
20180223042945 47 209 0.0 0.0 0.00 0.00 0.00 45 1020.9
20180223041932 47 209 0.0 0.0 0.00 0.00 0.00 45 1020.9
20180223034413 48 209 0.0 0.0 0.00 0.00 0.00 42 1020.8
20180223032937 48 209 0.0 0.0 0.00 0.00 0.00 42 1020.7
20180223031918 48 209 0.0 0.0 0.00 0.00 0.00 42 1020.8
20180223025936 50 209 0.0 0.0 0.00 0.00 0.00 40 1020.6
20180223025442 50 209 0.0 0.0 0.00 0.00 0.00 40 1020.6
20180223024921 50 209 0.0 0.0 0.00 0.00 0.00 39 1020.6
20180223023909 52 209 0.0 0.0 0.00 0.00 0.00 38 1020.6
20180223023419 52 209 0.0 0.0 0.00 0.00 0.00 37 1020.5
20180223022418 53 209 0.0 0.0 0.00 0.00 0.00 35 1020.3
20180223021931 53 209 0.0 0.0 0.00 0.00 0.00 36 1020.3
20180223020438 54 209 0.0 0.0 0.00 0.00 0.00 35 1020.3
20180223014925 55 209 0.0 2.0 0.00 0.00 0.00 34 1020.3
20180223014429 55 209 0.0 2.0 0.00 0.00 0.00 34 1020.3
20180223013908 55 209 0.0 0.0 0.00 0.00 0.00 33 1020.3
20180223013417 55 209 0.0 0.0 0.00 0.00 0.00 33 1020.3
20180223012906 55 209 0.0 2.0 0.00 0.00 0.00 33 1020.4
20180223012444 55 209 0.0 2.0 0.00 0.00 0.00 33 1020.3
20180223011418 56 209 0.0 2.0 0.00 0.00 0.00 32 1020.3
20180223010950 56 208 0.0 0.0 0.00 0.00 0.00 32 1020.3
20180223010441 56 208 0.0 2.0 0.00 0.00 0.00 32 1020.3
20180223005945 56 210 0.0 3.0 0.00 0.00 0.00 32 1020.3
20180223004947 56 250 0.0 5.0 0.00 0.00 0.00 32 1020.3
20180223004416 57 250 1.0 5.0 0.00 0.00 0.00 32 1020.2
20180223003906 57 176 0.0 2.0 0.00 0.00 0.00 31 1020.2
20180223002427 57 199 1.0 4.0 0.00 0.00 0.00 31 1020.3
20180223001420 58 188 1.0 4.0 0.00 0.00 0.00 31 1020.3
20180223000919 58 145 0.0 3.0 0.00 0.00 0.00 30 1020.3
20180222235448 58 232 0.0 1.0 0.00 0.00 0.00 31 1020.5
20180222234445 58 232 0.0 6.0 0.00 0.00 0.00 30 1020.5
20180222233939 59 248 1.0 6.0 0.00 0.00 0.00 30 1020.5
20180222232928 59 222 3.0 7.0 0.00 0.00 0.00 29 1020.5
20180222232442 59 234 1.0 7.0 0.00 0.00 0.00 29 1020.5
20180222231935 59 232 1.0 6.0 0.00 0.00 0.00 30 1020.5
20180222231423 59 222 2.0 9.0 0.00 0.00 0.00 30 1020.6
20180222230923 58 224 2.0 9.0 0.00 0.00 0.00 30 1020.6
20180222225439 59 197 1.0 6.0 0.00 0.00 0.00 29 1020.8
20180222224918 59 245 1.0 10.0 0.00 0.00 0.00 30 1020.8
20180222224434 59 262 3.0 10.0 0.00 0.00 0.00 30 1020.8
20180222223947 59 156 1.0 11.0 0.00 0.00 0.00 29 1020.9
20180222223433 59 194 3.0 11.0 0.00 0.00 0.00 29 1020.9
20180222222923 59 193 1.0 5.0 0.00 0.00 0.00 29 1021.0
20180222222417 59 172 0.0 5.0 0.00 0.00 0.00 29 1020.9
20180222221443 59 163 0.0 6.0 0.00 0.00 0.00 30 1021.0
20180222220937 59 181 1.0 6.0 0.00 0.00 0.00 29 1021.0
20180222220427 59 176 1.0 4.0 0.00 0.00 0.00 29 1021.0
20180222215929 59 253 0.0 5.0 0.00 0.00 0.00 28 1021.2
20180222215426 59 236 1.0 5.0 0.00 0.00 0.00 29 1021.2
20180222213924 58 151 2.0 13.0 0.00 0.00 0.00 27 1021.3
20180222213423 58 162 4.0 13.0 0.00 0.00 0.00 26 1021.4
20180222212906 58 210 0.0 7.0 0.00 0.00 0.00 26 1021.4
20180222212414 58 217 0.0 7.0 0.00 0.00 0.00 25 1021.4
20180222210951 59 178 0.0 10.0 0.00 0.00 0.00 24 1021.6
20180222204917 59 202 0.0 6.0 0.00 0.00 0.00 23 1022.0
20180222203941 58 151 0.0 6.0 0.00 0.00 0.00 24 1022.2
20180222203411 58 158 1.0 6.0 0.00 0.00 0.00 23 1022.4
20180222200414 57 193 0.0 6.0 0.00 0.00 0.00 23 1022.9
20180222195916 58 159 0.0 9.0 0.00 0.00 0.00 22 1023.0
20180222195426 57 160 3.0 9.0 0.00 0.00 0.00 23 1023.0
20180222194921 57 261 1.0 6.0 0.00 0.00 0.00 22 1023.0
20180222194431 57 205 0.0 6.0 0.00 0.00 0.00 22 1023.1
20180222193948 58 228 0.0 3.0 0.00 0.00 0.00 22 1023.2
20180222193434 58 160 0.0 2.0 0.00 0.00 0.00 21 1023.2
20180222191944 56 225 1.0 4.0 0.00 0.00 0.00 21 1023.5
20180222190925 56 223 1.0 4.0 0.00 0.00 0.00 21 1023.6
20180222190448 57 231 0.0 3.0 0.00 0.00 0.00 21 1023.7
20180222185912 57 174 0.0 2.0 0.00 0.00 0.00 22 1023.7
20180222184005 55 219 0.0 3.0 0.00 0.00 0.00 22 1024.1
20180222183446 56 226 0.0 7.0 0.00 0.00 0.00 22 1024.1
20180222182429 55 163 0.0 5.0 0.00 0.00 0.00 23 1024.1
20180222180948 54 210 0.0 1.0 0.00 0.00 0.00 22 1024.2
20180222175922 54 197 0.0 3.0 0.00 0.00 0.00 24 1024.4
20180222174948 54 162 0.0 3.0 0.00 0.00 0.00 24 1024.3
20180222173907 52 218 0.0 0.0 0.00 0.00 0.00 24 1024.3
20180222173437 52 218 0.0 1.0 0.00 0.00 0.00 25 1024.3
20180222172911 52 218 0.0 1.0 0.00 0.00 0.00 25 1024.2
20180222172439 52 140 0.0 0.0 0.00 0.00 0.00 25 1024.1
20180222171446 52 139 0.0 0.0 0.00 0.00 0.00 25 1024.1
20180222170911 52 140 0.0 0.0 0.00 0.00 0.00 27 1024.0
20180222165921 51 147 1.0 4.0 0.00 0.00 0.00 27 1023.9
20180222164912 50 154 0.0 2.0 0.00 0.00 0.00 28 1023.8
20180222163950 49 142 0.0 3.0 0.00 0.00 0.00 27 1023.6
20180222162437 48 133 1.0 3.0 0.00 0.00 0.00 30 1023.5
20180222161929 48 121 0.0 5.0 0.00 0.00 0.00 31 1023.5
20180222161441 47 116 0.0 6.0 0.00 0.00 0.00 33 1023.5
20180222160419 47 134 2.0 5.0 0.00 0.00 0.00 34 1023.4
20180222155949 46 123 0.0 3.0 0.00 0.00 0.00 36 1023.4
20180222154945 45 120 0.0 3.0 0.00 0.00 0.00 37 1023.2
20180222153910 43 259 0.0 2.0 0.00 0.00 0.00 43 1023.2
20180222153437 43 259 0.0 2.0 0.00 0.00 0.00 42 1023.1
20180222152409 42 259 0.0 0.0 0.00 0.00 0.00 41 1022.9
20180222150412 38 259 0.0 0.0 0.00 0.00 0.00 50 1022.5
20180222145937 37 259 0.0 0.0 0.00 0.00 0.00 51 1022.5
20180222145447 36 259 0.0 0.0 0.00 0.00 0.00 52 1022.3
20180222143440 34 259 0.0 0.0 0.00 0.00 0.00 55 1022.0
20180222142441 34 259 0.0 0.0 0.00 0.00 0.00 55 1021.8